User: anonymous   Login
Location: Grand Moustoir
(47.8355°N, 3.3120°W)
Time: 13:00:26
(UTC+00:00)
Language:

Cosmos 1606 Rocket - Orbit

View from above orbital plane
View from above orbital plane
View from above satellite
View from above satellite

Ground track
Ground track

The orbit data is extracted from the following two-line orbital elements,

1 15370U 84111B   20099.11925875  .00000069  00000-0  54805-5 0  9991
2 15370  82.5139 125.6859 0019302 271.1323  88.7681 14.83714311916294
Epoch (UTC): 08 April 2020 02:51:43
Eccentricity: 0.0019302
inclination: 82.5139°
perigee height: 604 km
apogee height: 631 km
right ascension of ascending node: 125.6859°
argument of perigee: 271.1323°
revolutions per day: 14.83714311
mean anomaly at epoch: 88.7681°
orbit number at epoch: 91629

The dashed part of the orbit path shows where the satellite is in the earth's shadow,  

DLR